Location: Liberty
(32.6612°N, 88.7589°W)
Time: 03:13:39
(UTC+00:00)

Tiangong - Visible Passes

Search period start: 03 October 2023 00:00
Search period end: 13 October 2023 00:00
Orbit: 371 x 384 km, 41.5° (Epoch: 02 October)

Date Brightness Start Highest point End Pass type
(mag) Time Alt. Az. Time Alt. Az. Time Alt. Az.
03 Oct 0.3 01:16:51 10° NW 01:18:51 16° N 01:18:51 16° N visible
04 Oct 0.0 00:14:21 10° WNW 00:16:43 19° N 00:19:05 10° NE visible
05 Oct 0.1 00:49:43 10° NW 00:51:45 16° N 00:52:36 14° NNE visible
06 Oct 0.5 01:24:17 10° NW 01:25:20 15° NNW 01:25:20 15° NNW visible
07 Oct 0.0 00:22:01 10° NW 00:24:09 17° N 00:25:57 11° NE visible
08 Oct -0.5 00:56:08 10° NW 00:58:32 24° N 00:58:32 24° N visible
08 Oct -0.2 23:53:48 10° NW 23:56:07 19° N 23:58:26 10° ENE visible
09 Oct 0.5 01:30:03 10° NW 01:31:04 19° NW 01:31:04 19° NW visible
10 Oct -1.2 00:27:35 10° NW 00:30:29 34° NNE 00:31:33 26° ENE visible
11 Oct -1.7 01:01:24 10° WNW 01:04:04 59° W 01:04:04 59° W visible
11 Oct -1.9 23:58:39 10° NW 00:01:43 53° NNE 00:04:34 11° ESE visible
12 Oct 1.0 01:35:54 10° W 01:36:36 13° WSW 01:36:36 13° WSW visible
